TimeGMT,TemperatureF,Dew PointF,Humidity,Sea Level PressureIn,VisibilityMPH,Wind Direction,Wind SpeedMPH,Gust SpeedMPH,PrecipitationIn,Events,Conditions,WindDirDegrees,DateUTC
12:00 AM,33,31,91,30.27,5,NE,2.3,,,,Light Haze,40,2014-01-12 00:00:00
12:20 AM,32.0,30.2,93,30.24,3.7,NE,3.5,-,N/A,,Unknown,40,2014-01-12 00:20:00
12:50 AM,32.0,30.2,93,30.24,5.0,Calm,Calm,-,N/A,,Unknown,0,2014-01-12 00:50:00
1:00 AM,31,29,90,30.27,3,ENE,1.2,,,,Light Haze,70,2014-01-12 01:00:00
1:20 AM,32.0,30.2,93,30.24,4.3,Calm,Calm,-,N/A,,Unknown,0,2014-01-12 01:20:00
1:50 AM,32.0,30.2,93,30.24,3.7,ESE,2.3,-,N/A,,Unknown,110,2014-01-12 01:50:00
2:00 AM,31,29,92,30.26,3,East,1.2,,,,Mist,80,2014-01-12 02:00:00
2:20 AM,32.0,30.2,93,30.24,0.4,Variable,2.3,-,N/A,Fog,Fog,0,2014-01-12 02:20:00
2:50 AM,30.2,28.4,93,30.24,0.9,NE,2.3,-,N/A,,Mist,50,2014-01-12 02:50:00
3:00 AM,31,29,91,30.24,3,ENE,3.5,,,,Mist,60,2014-01-12 03:00:00
3:20 AM,30.2,30.2,100,30.21,-9999.0,East,3.5,-,N/A,,Mist,80,2014-01-12 03:20:00
3:50 AM,30.2,30.2,100,30.21,5.6,ENE,3.5,-,N/A,,Unknown,70,2014-01-12 03:50:00
4:00 AM,32,30,91,30.23,6,East,3.5,,,Fog,Fog,90,2014-01-12 04:00:00
4:20 AM,32.0,30.2,93,30.21,5.6,East,3.5,-,N/A,,Unknown,80,2014-01-12 04:20:00
4:50 AM,30.2,30.2,100,30.21,5.6,East,5.8,-,N/A,,Unknown,90,2014-01-12 04:50:00
5:00 AM,32,30,88,30.21,12,East,6.9,,,,,90,2014-01-12 05:00:00
5:20 AM,30.2,30.2,100,30.18,-9999.0,East,3.5,-,N/A,,Clear,80,2014-01-12 05:20:00
5:50 AM,28.4,28.4,100,30.18,-9999.0,East,5.8,-,N/A,,Clear,90,2014-01-12 05:50:00
6:00 AM,30,28,91,30.19,9,East,5.8,,,,,90,2014-01-12 06:00:00
6:20 AM,30.2,30.2,100,30.15,-9999.0,East,5.8,-,N/A,,Clear,90,2014-01-12 06:20:00
6:50 AM,32.0,30.2,93,30.15,-9999.0,East,5.8,-,N/A,,Clear,90,2014-01-12 06:50:00
7:00 AM,31,29,88,30.16,10,East,5.8,,,,,90,2014-01-12 07:00:00
7:20 AM,32.0,30.2,93,30.15,-9999.0,East,6.9,-,N/A,,Clear,90,2014-01-12 07:20:00
7:50 AM,30.2,30.2,100,30.12,-9999.0,East,8.1,-,N/A,,Clear,90,2014-01-12 07:50:00
8:00 AM,31,29,92,30.14,12,East,6.9,,,,,100,2014-01-12 08:00:00
8:20 AM,32.0,30.2,93,30.12,-9999.0,East,6.9,-,N/A,,Clear,90,2014-01-12 08:20:00
8:50 AM,33.8,33.8,100,30.12,-9999.0,ENE,4.6,-,N/A,,Clear,70,2014-01-12 08:50:00
9:00 AM,36,33,83,30.13,19,East,3.5,,,,,100,2014-01-12 09:00:00
9:20 AM,35.6,33.8,93,30.12,-9999.0,East,3.5,-,N/A,,Clear,80,2014-01-12 09:20:00
9:50 AM,37.4,35.6,93,30.09,6.2,ESE,6.9,-,N/A,,Partly Cloudy,110,2014-01-12 09:50:00
10:00 AM,39,35,81,30.11,16,ESE,8.1,,,,,110,2014-01-12 10:00:00
10:20 AM,41.0,37.4,87,30.09,6.2,SE,10.4,-,N/A,,Partly Cloudy,140,2014-01-12 10:20:00
10:50 AM,41.0,37.4,87,30.09,6.2,SSE,10.4,-,N/A,,Mostly Cloudy,150,2014-01-12 10:50:00
11:00 AM,42,38,79,30.09,17,SE,12.7,,,,Partly Cloudy,140,2014-01-12 11:00:00
11:20 AM,42.8,37.4,81,30.06,6.2,SSE,13.8,-,N/A,,Mostly Cloudy,150,2014-01-12 11:20:00
11:50 AM,42.8,37.4,81,30.04,6.2,SSE,13.8,-,N/A,,Mostly Cloudy,160,2014-01-12 11:50:00
12:00 PM,42,38,79,30.04,15,SSE,13.8,,,,Mostly Cloudy,150,2014-01-12 12:00:00
12:20 PM,42.8,37.4,81,30.01,6.2,SSE,11.5,-,N/A,,Mostly Cloudy,150,2014-01-12 12:20:00
12:50 PM,42.8,39.2,87,30.01,6.2,SSE,11.5,-,N/A,,Mostly Cloudy,150,2014-01-12 12:50:00
1:00 PM,42,38,81,30.00,11,SSE,12.7,,,,Overcast,150,2014-01-12 13:00:00
1:20 PM,42.8,39.2,87,29.98,6.2,SE,11.5,-,N/A,,Mostly Cloudy,140,2014-01-12 13:20:00
1:50 PM,42.8,39.2,87,29.95,5.0,SE,10.4,-,N/A,,Mostly Cloudy,140,2014-01-12 13:50:00
2:00 PM,42,39,85,29.95,7,SE,12.7,,,,Overcast,140,2014-01-12 14:00:00
2:20 PM,42.8,39.2,87,29.92,4.3,SSE,11.5,-,N/A,,Mostly Cloudy,150,2014-01-12 14:20:00
2:50 PM,42.8,41.0,93,29.92,2.8,SE,9.2,-,N/A,,Haze,130,2014-01-12 14:50:00
3:00 PM,42,40,92,29.92,3,SE,10.4,,,Rain,Light Drizzle,130,2014-01-12 15:00:00
3:20 PM,42.8,41.0,93,29.89,-9999.0,SE,9.2,-,N/A,,Mostly Cloudy,130,2014-01-12 15:20:00
3:50 PM,42.8,41.0,93,29.89,-9999.0,SE,9.2,-,N/A,,Mostly Cloudy,140,2014-01-12 15:50:00
4:00 PM,43,41,90,29.89,3,SE,9.2,,,Rain,Drizzle,130,2014-01-12 16:00:00
4:20 PM,42.8,41.0,93,29.86,-9999.0,SE,10.4,-,N/A,,Light Drizzle,130,2014-01-12 16:20:00
4:50 PM,42.8,41.0,93,29.86,2.5,SE,8.1,-,N/A,,Light Drizzle,140,2014-01-12 16:50:00
5:00 PM,43,42,92,29.86,3,SE,10.4,,,Rain,Light Drizzle,140,2014-01-12 17:00:00
5:20 PM,42.8,42.8,100,29.83,-9999.0,SE,8.1,-,N/A,,Light Drizzle,130,2014-01-12 17:20:00
5:50 PM,44.6,42.8,93,29.83,-9999.0,SE,8.1,-,N/A,,Light Drizzle,140,2014-01-12 17:50:00
6:00 PM,44,42,92,29.83,2,SE,10.4,,,Rain,Drizzle,140,2014-01-12 18:00:00
6:20 PM,44.6,42.8,93,29.80,3.1,SE,9.2,-,N/A,,Light Drizzle,140,2014-01-12 18:20:00
6:50 PM,44.6,42.8,93,29.80,3.1,SSE,8.1,-,N/A,,Light Drizzle,150,2014-01-12 18:50:00
7:00 PM,45,43,92,29.80,4,SE,9.2,,,Rain,Drizzle,140,2014-01-12 19:00:00
7:20 PM,46.4,44.6,93,29.77,4.3,SSE,11.5,-,N/A,,Mostly Cloudy,150,2014-01-12 19:20:00
7:50 PM,46.4,44.6,93,29.77,3.7,SSE,11.5,-,N/A,Rain,Light Rain,150,2014-01-12 19:50:00
8:00 PM,46,44,91,29.77,3,SSE,11.5,,,Rain,Light Drizzle,150,2014-01-12 20:00:00
8:20 PM,46.4,44.6,93,29.74,3.7,SSE,11.5,-,N/A,Rain,Light Rain,160,2014-01-12 20:20:00
8:50 PM,46.4,44.6,93,29.74,3.7,SSE,11.5,-,N/A,Rain,Light Rain,160,2014-01-12 20:50:00
9:00 PM,47,45,91,29.74,4,SSE,10.4,,,Rain,Light Rain,150,2014-01-12 21:00:00
9:20 PM,48.2,46.4,93,29.71,3.1,SSE,11.5,-,N/A,Rain,Rain,160,2014-01-12 21:20:00
9:50 PM,48.2,46.4,93,29.71,3.7,SSE,10.4,-,N/A,Rain,Light Rain,160,2014-01-12 21:50:00
10:00 PM,48,46,90,29.71,6,SSE,10.4,,,Rain,Light Rain,160,2014-01-12 22:00:00
10:20 PM,48.2,46.4,93,29.68,6.2,SSE,10.4,-,N/A,Rain,Light Rain,160,2014-01-12 22:20:00
10:50 PM,50.0,46.4,87,29.68,6.2,South,12.7,-,N/A,,Mostly Cloudy,180,2014-01-12 22:50:00
11:00 PM,49,47,91,29.68,10,South,12.7,,,Rain,Rain,180,2014-01-12 23:00:00
11:20 PM,50.0,48.2,94,29.65,5.0,South,11.5,-,N/A,Rain,Light Rain,190,2014-01-12 23:20:00
11:50 PM,50.0,46.4,87,29.68,6.2,WSW,19.6,-,N/A,Rain,Light Rain,250,2014-01-12 23:50:00